Вернуться в каталог

COSMOS 1054

АктивенВоенныеLEO
NORAD 11131·PAYLOAD·🇷🇺 Russia

Запущен Dec 5, 1978 с Plesetsk Cosmodrome

Loading…

Ближайшие Пролёты (ближайшие 24 часа)

TLE

СвежийSource: Space-Track

Эпоха: Sep 14, 2026, 09:54 UTC

1 11131U 78109D   26257.41268721 -.00000026  00000-0 -63290-4 0  9999
2 11131  74.0148 223.5017 0028013 246.9895 284.7704 12.49314152178875

Отслеживайте COSMOS 1054 в реальном времени с AllMySat

Download on the App Store